Year,Month,Day,Hour,Minute,Value (Times are PST for temperature in C)
2011,08,19,00,00,13.40
2011,08,19,00,01,13.30
2011,08,19,00,02,13.30
2011,08,19,00,03,13.30
2011,08,19,00,04,13.30
2011,08,19,00,05,13.20
2011,08,19,00,06,13.20
2011,08,19,00,07,13.20
2011,08,19,00,08,13.20
2011,08,19,00,09,13.10
2011,08,19,00,10,13.10
2011,08,19,00,11,13.10
2011,08,19,00,12,13.00
2011,08,19,00,13,13.00
2011,08,19,00,14,13.00
2011,08,19,00,15,12.90
2011,08,19,00,16,12.90
2011,08,19,00,17,12.90
2011,08,19,00,18,12.90
2011,08,19,00,19,12.90
2011,08,19,00,20,12.90
2011,08,19,00,21,12.90
2011,08,19,00,22,12.90
2011,08,19,00,23,12.90
2011,08,19,00,24,12.90
2011,08,19,00,25,12.90
2011,08,19,00,26,12.90
2011,08,19,00,27,12.90
2011,08,19,00,28,12.90
2011,08,19,00,29,12.90
2011,08,19,00,30,13.00
2011,08,19,00,31,13.10
2011,08,19,00,32,13.10
2011,08,19,00,33,13.20
2011,08,19,00,34,13.30
2011,08,19,00,35,13.40
2011,08,19,00,36,13.50
2011,08,19,00,37,13.60
2011,08,19,00,38,13.70
2011,08,19,00,39,13.90
2011,08,19,00,40,14.00
2011,08,19,00,41,14.10
2011,08,19,00,42,14.20
2011,08,19,00,43,14.20
2011,08,19,00,44,14.30
2011,08,19,00,45,14.40
2011,08,19,00,46,14.50
2011,08,19,00,47,14.50
2011,08,19,00,48,14.60
2011,08,19,00,49,14.60
2011,08,19,00,50,14.70
2011,08,19,00,51,14.70
2011,08,19,00,52,14.70
2011,08,19,00,53,14.80
2011,08,19,00,54,14.80
2011,08,19,00,55,14.90
2011,08,19,00,56,14.90
2011,08,19,00,57,14.90
2011,08,19,00,58,15.00
2011,08,19,00,59,15.00
2011,08,19,01,00,15.00
2011,08,19,01,01,15.10
2011,08,19,01,02,15.10
2011,08,19,01,03,15.10
2011,08,19,01,04,15.20
2011,08,19,01,05,15.20
2011,08,19,01,06,15.20
2011,08,19,01,07,15.20
2011,08,19,01,08,15.20
2011,08,19,01,09,15.20
2011,08,19,01,10,15.20
2011,08,19,01,11,15.20
2011,08,19,01,12,15.20
2011,08,19,01,13,15.20
2011,08,19,01,14,15.20
2011,08,19,01,15,15.20
2011,08,19,01,16,15.20
2011,08,19,01,17,15.20
2011,08,19,01,18,15.20
2011,08,19,01,19,15.20
2011,08,19,01,20,15.20
2011,08,19,01,21,15.20
2011,08,19,01,22,15.10
2011,08,19,01,23,15.10
2011,08,19,01,24,15.00
2011,08,19,01,25,15.00
2011,08,19,01,26,15.00
2011,08,19,01,27,15.00
2011,08,19,01,28,15.00
2011,08,19,01,29,15.10
2011,08,19,01,30,15.10
2011,08,19,01,31,15.10
2011,08,19,01,32,15.10
2011,08,19,01,33,15.00
2011,08,19,01,34,15.00
2011,08,19,01,35,14.90
2011,08,19,01,36,14.90
2011,08,19,01,37,14.80
2011,08,19,01,38,14.60
2011,08,19,01,39,14.40
2011,08,19,01,40,14.20
2011,08,19,01,41,14.10
2011,08,19,01,42,14.00
2011,08,19,01,43,13.90
2011,08,19,01,44,13.80
2011,08,19,01,45,13.70
2011,08,19,01,46,13.60
2011,08,19,01,47,13.50
2011,08,19,01,48,13.50
2011,08,19,01,49,13.40
2011,08,19,01,50,13.30
2011,08,19,01,51,13.40
2011,08,19,01,52,13.40
2011,08,19,01,53,13.50
2011,08,19,01,54,13.60
2011,08,19,01,55,13.60
2011,08,19,01,56,13.60
2011,08,19,01,57,13.60
2011,08,19,01,58,13.60
2011,08,19,01,59,13.60
2011,08,19,02,00,13.70
2011,08,19,02,01,13.70
2011,08,19,02,02,13.70
2011,08,19,02,03,13.80
2011,08,19,02,04,13.80
2011,08,19,02,05,13.90
2011,08,19,02,06,13.90
2011,08,19,02,07,14.00
2011,08,19,02,08,14.10
2011,08,19,02,09,14.10
2011,08,19,02,10,14.10
2011,08,19,02,11,14.10
2011,08,19,02,12,14.10
2011,08,19,02,13,14.10
2011,08,19,02,14,14.00
2011,08,19,02,15,14.00
2011,08,19,02,16,14.00
2011,08,19,02,17,13.90
2011,08,19,02,18,13.90
2011,08,19,02,19,13.90
2011,08,19,02,20,13.90
2011,08,19,02,21,13.90
2011,08,19,02,22,13.90
2011,08,19,02,23,14.00
2011,08,19,02,24,14.00
2011,08,19,02,25,14.00
2011,08,19,02,26,14.00
2011,08,19,02,27,14.00
2011,08,19,02,28,14.00
2011,08,19,02,29,14.00
2011,08,19,02,30,13.90
2011,08,19,02,31,13.90
2011,08,19,02,32,13.90
2011,08,19,02,33,13.80
2011,08,19,02,34,13.80
2011,08,19,02,35,13.70
2011,08,19,02,36,13.60
2011,08,19,02,37,13.40
2011,08,19,02,38,13.30
2011,08,19,02,39,13.10
2011,08,19,02,40,13.00
2011,08,19,02,41,12.90
2011,08,19,02,42,12.80
2011,08,19,02,43,12.70
2011,08,19,02,44,12.60
2011,08,19,02,45,12.60
2011,08,19,02,46,12.50
2011,08,19,02,47,12.40
2011,08,19,02,48,12.30
2011,08,19,02,49,12.30
2011,08,19,02,50,12.20
2011,08,19,02,51,12.10
2011,08,19,02,52,12.10
2011,08,19,02,53,12.00
2011,08,19,02,54,12.00
2011,08,19,02,55,11.90
2011,08,19,02,56,11.90
2011,08,19,02,57,11.90
2011,08,19,02,58,11.90
2011,08,19,02,59,11.80
2011,08,19,03,00,11.80
2011,08,19,03,01,11.80
2011,08,19,03,02,11.80
2011,08,19,03,03,11.80
2011,08,19,03,04,11.80
2011,08,19,03,05,11.70
2011,08,19,03,06,11.70
2011,08,19,03,07,11.70
2011,08,19,03,08,11.70
2011,08,19,03,09,11.70
2011,08,19,03,10,11.70
2011,08,19,03,11,11.60
2011,08,19,03,12,11.60
2011,08,19,03,13,11.60
2011,08,19,03,14,11.60
2011,08,19,03,15,11.60
2011,08,19,03,16,11.60
2011,08,19,03,17,11.60
2011,08,19,03,18,11.60
2011,08,19,03,19,11.60
2011,08,19,03,20,11.70
2011,08,19,03,21,11.70
2011,08,19,03,22,11.80
2011,08,19,03,23,11.80
2011,08,19,03,24,11.90
2011,08,19,03,25,12.00
2011,08,19,03,26,12.10
2011,08,19,03,27,12.20
2011,08,19,03,28,12.40
2011,08,19,03,29,12.50
2011,08,19,03,30,12.60
2011,08,19,03,31,12.70
2011,08,19,03,32,12.80
2011,08,19,03,33,12.90
2011,08,19,03,34,12.90
2011,08,19,03,35,13.00
2011,08,19,03,36,13.10
2011,08,19,03,37,13.10
2011,08,19,03,38,13.20
2011,08,19,03,39,13.20
2011,08,19,03,40,13.20
2011,08,19,03,41,13.30
2011,08,19,03,42,13.30
2011,08,19,03,43,13.30
2011,08,19,03,44,13.30
2011,08,19,03,45,13.30
2011,08,19,03,46,13.30
2011,08,19,03,47,13.30
2011,08,19,03,48,13.30
2011,08,19,03,49,13.30
2011,08,19,03,50,13.30
2011,08,19,03,51,13.30
2011,08,19,03,52,13.30
2011,08,19,03,53,13.30
2011,08,19,03,54,13.30
2011,08,19,03,55,13.30
2011,08,19,03,56,13.30
2011,08,19,03,57,13.30
2011,08,19,03,58,13.30
2011,08,19,03,59,13.30
2011,08,19,04,00,13.30
2011,08,19,04,01,13.30
2011,08,19,04,02,13.30
2011,08,19,04,03,13.30
2011,08,19,04,04,13.30
2011,08,19,04,05,13.30
2011,08,19,04,06,13.40
2011,08,19,04,07,13.40
2011,08,19,04,08,13.40
2011,08,19,04,09,13.40
2011,08,19,04,10,13.40
2011,08,19,04,11,13.40
2011,08,19,04,12,13.40
2011,08,19,04,13,13.40
2011,08,19,04,14,13.40
2011,08,19,04,15,13.30
2011,08,19,04,16,13.40
2011,08,19,04,17,13.40
2011,08,19,04,18,13.30
2011,08,19,04,19,13.40
2011,08,19,04,20,13.40
2011,08,19,04,21,13.30
2011,08,19,04,22,13.30
2011,08,19,04,23,13.30
2011,08,19,04,24,13.30
2011,08,19,04,25,13.30
2011,08,19,04,26,13.30
2011,08,19,04,27,13.30
2011,08,19,04,28,13.30
2011,08,19,04,29,13.30
2011,08,19,04,30,13.30
2011,08,19,04,31,13.20
2011,08,19,04,32,13.20
2011,08,19,04,33,13.20
2011,08,19,04,34,13.20
2011,08,19,04,35,13.20
2011,08,19,04,36,13.30
2011,08,19,04,37,13.30
2011,08,19,04,38,13.30
2011,08,19,04,39,13.20
2011,08,19,04,40,13.20
2011,08,19,04,41,13.20
2011,08,19,04,42,13.20
2011,08,19,04,43,13.20
2011,08,19,04,44,13.20
2011,08,19,04,45,13.20
2011,08,19,04,46,13.20
2011,08,19,04,47,13.20
2011,08,19,04,48,13.20
2011,08,19,04,49,13.20
2011,08,19,04,50,13.20
2011,08,19,04,51,13.20
2011,08,19,04,52,13.20
2011,08,19,04,53,13.20
2011,08,19,04,54,13.20
2011,08,19,04,55,13.20
2011,08,19,04,56,13.20
2011,08,19,04,57,13.20
2011,08,19,04,58,13.20
2011,08,19,04,59,13.20
2011,08,19,05,00,13.10
2011,08,19,05,01,13.10
2011,08,19,05,02,13.10
2011,08,19,05,03,13.10
2011,08,19,05,04,13.10
2011,08,19,05,05,13.10
2011,08,19,05,06,13.00
2011,08,19,05,07,13.00
2011,08,19,05,08,13.00
2011,08,19,05,09,13.00
2011,08,19,05,10,13.00
2011,08,19,05,11,12.90
2011,08,19,05,12,12.90
2011,08,19,05,13,12.90
2011,08,19,05,14,12.80
2011,08,19,05,15,12.80
2011,08,19,05,16,12.70
2011,08,19,05,17,12.70
2011,08,19,05,18,12.60
2011,08,19,05,19,12.50
2011,08,19,05,20,12.50
2011,08,19,05,21,12.40
2011,08,19,05,22,12.30
2011,08,19,05,23,12.30
2011,08,19,05,24,12.30
2011,08,19,05,25,12.20
2011,08,19,05,26,12.20
2011,08,19,05,27,12.10
2011,08,19,05,28,12.10
2011,08,19,05,29,12.10
2011,08,19,05,30,12.00
2011,08,19,05,31,12.00
2011,08,19,05,32,12.00
2011,08,19,05,33,12.00
2011,08,19,05,34,12.10
2011,08,19,05,35,12.10
2011,08,19,05,36,12.20
2011,08,19,05,37,12.20
2011,08,19,05,38,12.20
2011,08,19,05,39,12.20
2011,08,19,05,40,12.30
2011,08,19,05,41,12.30
2011,08,19,05,42,12.30
2011,08,19,05,43,12.30
2011,08,19,05,44,12.30
2011,08,19,05,45,12.30
2011,08,19,05,46,12.30
2011,08,19,05,47,12.40
2011,08,19,05,48,12.40
2011,08,19,05,49,12.40
2011,08,19,05,50,12.50
2011,08,19,05,51,12.50
2011,08,19,05,52,12.50
2011,08,19,05,53,12.50
2011,08,19,05,54,12.40
2011,08,19,05,55,12.40
2011,08,19,05,56,12.40
2011,08,19,05,57,12.40
2011,08,19,05,58,12.40
2011,08,19,05,59,12.40
2011,08,19,06,00,12.40
2011,08,19,06,01,12.40
2011,08,19,06,02,12.30
2011,08,19,06,03,12.30
2011,08,19,06,04,12.40
2011,08,19,06,05,12.40
2011,08,19,06,06,12.40
2011,08,19,06,07,12.30
2011,08,19,06,08,12.30
2011,08,19,06,09,12.30
2011,08,19,06,10,12.30
2011,08,19,06,11,12.30
2011,08,19,06,12,12.20
2011,08,19,06,13,12.20
2011,08,19,06,14,12.20
2011,08,19,06,15,12.20
2011,08,19,06,16,12.10
2011,08,19,06,17,12.10
2011,08,19,06,18,12.10
2011,08,19,06,19,12.10
2011,08,19,06,20,12.10
2011,08,19,06,21,12.10
2011,08,19,06,22,12.10
2011,08,19,06,23,12.10
2011,08,19,06,24,12.10
2011,08,19,06,25,12.20
2011,08,19,06,26,12.20
2011,08,19,06,27,12.30
2011,08,19,06,28,12.30
2011,08,19,06,29,12.30
2011,08,19,06,30,12.30
2011,08,19,06,31,12.30
2011,08,19,06,32,12.30
2011,08,19,06,33,12.30
2011,08,19,06,34,12.30
2011,08,19,06,35,12.30
2011,08,19,06,36,12.30
2011,08,19,06,37,12.30
2011,08,19,06,38,12.40
2011,08,19,06,39,12.40
2011,08,19,06,40,12.40
2011,08,19,06,41,12.40
2011,08,19,06,42,12.50
2011,08,19,06,43,12.50
2011,08,19,06,44,12.60
2011,08,19,06,45,12.60
2011,08,19,06,46,12.70
2011,08,19,06,47,12.70
2011,08,19,06,48,12.70
2011,08,19,06,49,12.80
2011,08,19,06,50,12.80
2011,08,19,06,51,12.80
2011,08,19,06,52,12.80
2011,08,19,06,53,12.90
2011,08,19,06,54,12.90
2011,08,19,06,55,13.00
2011,08,19,06,56,13.00
2011,08,19,06,57,13.10
2011,08,19,06,58,13.10
2011,08,19,06,59,13.20
2011,08,19,07,00,13.20
2011,08,19,07,01,13.20
2011,08,19,07,02,13.30
2011,08,19,07,03,13.30
2011,08,19,07,04,13.30
2011,08,19,07,05,13.30
2011,08,19,07,06,13.30
2011,08,19,07,07,13.30
2011,08,19,07,08,13.30
2011,08,19,07,09,13.20
2011,08,19,07,10,13.20
2011,08,19,07,11,13.20
2011,08,19,07,12,13.20
2011,08,19,07,13,13.10
2011,08,19,07,14,13.10
2011,08,19,07,15,13.10
2011,08,19,07,16,13.10
2011,08,19,07,17,13.10
2011,08,19,07,18,13.10
2011,08,19,07,19,13.10
2011,08,19,07,20,13.10
2011,08,19,07,21,13.10
2011,08,19,07,22,13.10
2011,08,19,08,02,14.70
2011,08,19,08,03,14.70
2011,08,19,08,04,14.70
2011,08,19,08,05,14.70
2011,08,19,08,06,14.70
2011,08,19,08,07,14.70
2011,08,19,08,08,14.70
2011,08,19,08,09,14.70
2011,08,19,08,10,14.70
2011,08,19,08,11,14.70
2011,08,19,08,12,14.70
2011,08,19,08,13,14.60
2011,08,19,08,14,14.60
2011,08,19,08,15,14.60
2011,08,19,08,16,14.60
2011,08,19,08,17,14.60
2011,08,19,08,18,14.60
2011,08,19,08,19,14.60
2011,08,19,08,20,14.70
2011,08,19,08,21,14.70
2011,08,19,08,22,14.80
2011,08,19,08,23,14.70
2011,08,19,08,24,14.70
2011,08,19,08,25,14.80
2011,08,19,08,26,14.80
2011,08,19,08,27,14.80
2011,08,19,08,28,14.90
2011,08,19,08,29,15.00
2011,08,19,08,30,15.00
2011,08,19,08,31,15.00
2011,08,19,08,32,15.00
2011,08,19,08,33,15.00
2011,08,19,08,34,15.00
2011,08,19,08,35,15.10
2011,08,19,08,36,15.10
2011,08,19,08,37,15.10
2011,08,19,08,38,15.10
2011,08,19,08,39,15.10
2011,08,19,08,40,15.20
2011,08,19,08,41,15.20
2011,08,19,08,42,15.20
2011,08,19,08,43,15.20
2011,08,19,08,44,15.20
2011,08,19,08,45,15.20
2011,08,19,08,46,15.30
2011,08,19,08,47,15.30
2011,08,19,08,48,15.30
2011,08,19,08,49,15.30
2011,08,19,08,50,15.30
2011,08,19,08,51,15.40
2011,08,19,08,52,15.40
2011,08,19,08,53,15.50
2011,08,19,08,54,15.50
2011,08,19,08,55,15.50
2011,08,19,08,56,15.50
2011,08,19,08,57,15.50
2011,08,19,08,58,15.50
2011,08,19,08,59,15.60
2011,08,19,09,00,15.60
2011,08,19,09,01,15.60
2011,08,19,09,02,15.60
2011,08,19,09,03,15.70
2011,08,19,09,04,15.70
2011,08,19,09,05,15.80
2011,08,19,09,06,15.80
2011,08,19,09,07,15.80
2011,08,19,09,08,15.80
2011,08,19,09,09,15.90
2011,08,19,09,10,15.90
2011,08,19,09,11,16.00
2011,08,19,09,12,16.00
2011,08,19,09,13,16.10
2011,08,19,09,14,16.10
2011,08,19,09,15,16.10
2011,08,19,09,16,16.20
2011,08,19,09,17,16.20
2011,08,19,09,18,16.20
2011,08,19,09,19,16.20
2011,08,19,09,20,16.20
2011,08,19,09,21,16.30
2011,08,19,09,22,16.30
2011,08,19,09,23,16.30
2011,08,19,09,24,16.30
2011,08,19,09,25,16.30
2011,08,19,09,26,16.40
2011,08,19,09,27,16.40
2011,08,19,09,28,16.50
2011,08,19,09,29,16.60
2011,08,19,09,30,16.70
2011,08,19,09,31,16.80
2011,08,19,09,32,16.80
2011,08,19,09,33,16.80
2011,08,19,09,34,16.90
2011,08,19,09,35,16.90
2011,08,19,09,36,16.90
2011,08,19,09,37,16.90
2011,08,19,09,38,16.80
2011,08,19,09,39,16.80
2011,08,19,09,40,16.70
2011,08,19,09,41,16.70
2011,08,19,09,42,16.70
2011,08,19,09,43,16.70
2011,08,19,09,44,16.80
2011,08,19,09,45,16.80
2011,08,19,09,46,16.90
2011,08,19,09,47,16.90
2011,08,19,09,48,17.00
2011,08,19,09,49,17.20
2011,08,19,09,50,17.30
2011,08,19,09,51,17.40
2011,08,19,09,52,17.50
2011,08,19,09,53,17.60
2011,08,19,09,54,17.60
2011,08,19,09,55,17.70
2011,08,19,09,56,17.80
2011,08,19,09,57,17.90
2011,08,19,09,58,18.00
2011,08,19,09,59,18.10
2011,08,19,10,00,18.20
2011,08,19,10,01,18.20
2011,08,19,10,02,18.20
2011,08,19,10,03,18.20
2011,08,19,10,04,18.20
2011,08,19,10,05,18.20
2011,08,19,10,06,18.20
2011,08,19,10,07,18.20
2011,08,19,10,08,18.20
2011,08,19,10,09,18.20
2011,08,19,10,10,18.20
2011,08,19,10,11,18.30
2011,08,19,10,12,18.30
2011,08,19,10,13,18.20
2011,08,19,10,14,18.20
2011,08,19,10,15,18.20
2011,08,19,10,16,18.30
2011,08,19,10,17,18.40
2011,08,19,10,18,18.30
2011,08,19,10,19,18.30
2011,08,19,10,20,18.10
2011,08,19,10,21,18.00
2011,08,19,10,22,18.00
2011,08,19,10,23,17.90
2011,08,19,10,24,17.90
2011,08,19,10,25,17.90
2011,08,19,10,26,17.90
2011,08,19,10,27,17.80
2011,08,19,10,28,17.80
2011,08,19,10,29,17.80
2011,08,19,10,30,17.90
2011,08,19,10,31,17.90
2011,08,19,10,32,17.90
2011,08,19,10,33,17.90
2011,08,19,10,34,17.90
2011,08,19,10,35,17.90
2011,08,19,10,36,18.00
2011,08,19,10,37,18.00
2011,08,19,10,38,18.10
2011,08,19,10,39,18.10
2011,08,19,10,40,18.10
2011,08,19,10,41,18.20
2011,08,19,10,42,18.20
2011,08,19,10,43,18.20
2011,08,19,10,44,18.20
2011,08,19,10,45,18.30
2011,08,19,10,46,18.30
2011,08,19,10,47,18.40
2011,08,19,10,48,18.30
2011,08,19,10,49,18.30
2011,08,19,10,50,18.30
2011,08,19,10,51,18.40
2011,08,19,10,52,18.40
2011,08,19,10,53,18.50
2011,08,19,10,54,18.50
2011,08,19,10,55,18.60
2011,08,19,10,56,18.60
2011,08,19,10,57,18.60
2011,08,19,10,58,18.60
2011,08,19,10,59,18.60
2011,08,19,11,00,18.60
2011,08,19,11,01,18.60
2011,08,19,11,02,18.60
2011,08,19,11,03,18.60
2011,08,19,11,04,18.60
2011,08,19,11,05,18.60
2011,08,19,11,06,18.60
2011,08,19,11,07,18.50
2011,08,19,11,08,18.40
2011,08,19,11,09,18.30
2011,08,19,11,10,18.20
2011,08,19,11,11,18.20
2011,08,19,11,12,18.10
2011,08,19,11,13,18.10
2011,08,19,11,14,18.20
2011,08,19,11,15,18.20
2011,08,19,11,16,18.20
2011,08,19,11,17,18.20
2011,08,19,11,18,18.20
2011,08,19,11,19,18.10
2011,08,19,11,20,18.10
2011,08,19,11,21,18.10
2011,08,19,11,22,18.10
2011,08,19,11,23,18.10
2011,08,19,11,24,18.10
2011,08,19,11,25,18.20
2011,08,19,11,26,18.20
2011,08,19,11,27,18.20
2011,08,19,11,28,18.20
2011,08,19,11,29,18.20
2011,08,19,11,30,18.20
2011,08,19,11,31,18.20
2011,08,19,11,32,18.20
2011,08,19,11,33,18.20
2011,08,19,11,34,18.20
2011,08,19,11,35,18.20
2011,08,19,11,36,18.20
2011,08,19,11,37,18.20
2011,08,19,11,38,18.20
2011,08,19,11,39,18.20
2011,08,19,11,40,18.30
2011,08,19,11,41,18.30
2011,08,19,11,42,18.40
2011,08,19,11,43,18.40
2011,08,19,11,44,18.40
2011,08,19,11,45,18.40
2011,08,19,11,46,18.40
2011,08,19,11,47,18.50
2011,08,19,11,48,18.50
2011,08,19,11,49,18.50
2011,08,19,11,50,18.50
2011,08,19,11,51,18.60
2011,08,19,11,52,18.60
2011,08,19,11,53,18.70
2011,08,19,11,54,18.80
2011,08,19,11,55,18.80
2011,08,19,11,56,18.80
2011,08,19,11,57,18.80
2011,08,19,11,58,18.80
2011,08,19,11,59,18.70
2011,08,19,12,00,18.80
2011,08,19,12,01,18.80
2011,08,19,12,02,18.80
2011,08,19,12,03,18.80
2011,08,19,12,04,18.80
2011,08,19,12,05,18.80
2011,08,19,12,06,18.80
2011,08,19,12,07,18.80
2011,08,19,12,08,18.90
2011,08,19,12,09,18.90
2011,08,19,12,10,18.90
2011,08,19,12,11,18.90
2011,08,19,12,12,18.90
2011,08,19,12,13,18.90
2011,08,19,12,14,18.90
2011,08,19,12,15,18.90
2011,08,19,12,16,18.90
2011,08,19,12,17,18.90
2011,08,19,12,18,18.90
2011,08,19,12,19,18.90
2011,08,19,12,20,18.90
2011,08,19,12,21,18.90
2011,08,19,12,22,18.90
2011,08,19,12,23,18.90
2011,08,19,12,24,19.00
2011,08,19,12,25,19.00
2011,08,19,12,26,19.00
2011,08,19,12,27,19.00
2011,08,19,12,28,19.00
2011,08,19,12,29,19.00
2011,08,19,12,30,19.00
2011,08,19,12,31,19.00
2011,08,19,12,32,19.00
2011,08,19,12,33,19.00
2011,08,19,12,34,19.00
2011,08,19,12,35,19.10
2011,08,19,12,36,19.00
2011,08,19,12,37,19.10
2011,08,19,12,38,19.10
2011,08,19,12,39,19.10
2011,08,19,12,40,19.10
2011,08,19,12,41,19.10
2011,08,19,12,42,19.10
2011,08,19,12,43,19.20
2011,08,19,12,44,19.20
2011,08,19,12,45,19.30
2011,08,19,12,46,19.40
2011,08,19,12,47,19.40
2011,08,19,12,48,19.40
2011,08,19,12,49,19.40
2011,08,19,12,50,19.30
2011,08,19,12,51,19.30
2011,08,19,12,52,19.20
2011,08,19,12,53,19.20
2011,08,19,12,54,19.20
2011,08,19,12,55,19.20
2011,08,19,12,56,19.20
2011,08,19,12,57,19.20
2011,08,19,12,58,19.20
2011,08,19,12,59,19.20
2011,08,19,13,00,19.20
2011,08,19,13,01,19.30
2011,08,19,13,02,19.30
2011,08,19,13,03,19.30
2011,08,19,13,04,19.30
2011,08,19,13,05,19.30
2011,08,19,13,06,19.30
2011,08,19,13,07,19.30
2011,08,19,13,08,19.30
2011,08,19,13,09,19.30
2011,08,19,13,10,19.40
2011,08,19,13,11,19.50
2011,08,19,13,12,19.60
2011,08,19,13,13,19.70
2011,08,19,13,14,19.70
2011,08,19,13,15,19.70
2011,08,19,13,16,19.60
2011,08,19,13,17,19.60
2011,08,19,13,18,19.50
2011,08,19,13,19,19.50
2011,08,19,13,20,19.40
2011,08,19,13,21,19.40
2011,08,19,13,22,19.40
2011,08,19,13,23,19.50
2011,08,19,13,24,19.50
2011,08,19,13,25,19.60
2011,08,19,13,26,19.60
2011,08,19,13,27,19.60
2011,08,19,13,28,19.70
2011,08,19,13,29,19.70
2011,08,19,13,30,19.80
2011,08,19,13,31,19.80
2011,08,19,13,32,19.90
2011,08,19,13,33,19.90
2011,08,19,13,34,19.90
2011,08,19,13,35,19.90
2011,08,19,13,36,19.90
2011,08,19,13,37,19.90
2011,08,19,13,38,19.80
2011,08,19,13,39,19.80
2011,08,19,13,40,19.80
2011,08,19,13,41,19.80
2011,08,19,13,42,19.80
2011,08,19,13,43,19.80
2011,08,19,13,44,19.80
2011,08,19,13,45,19.80
2011,08,19,13,46,19.80
2011,08,19,13,47,19.80
2011,08,19,13,48,19.80
2011,08,19,13,49,19.80
2011,08,19,13,50,19.80
2011,08,19,13,51,19.90
2011,08,19,13,52,20.00
2011,08,19,13,53,20.00
2011,08,19,13,54,20.10
2011,08,19,13,55,20.20
2011,08,19,13,56,20.20
2011,08,19,13,57,20.30
2011,08,19,13,58,20.30
2011,08,19,13,59,20.30
2011,08,19,14,00,20.30
2011,08,19,14,01,20.30
2011,08,19,14,02,20.30
2011,08,19,14,03,20.40
2011,08,19,14,04,20.40
2011,08,19,14,05,20.50
2011,08,19,14,06,20.50
2011,08,19,14,07,20.60
2011,08,19,14,08,20.60
2011,08,19,14,09,20.70
2011,08,19,14,10,20.80
2011,08,19,14,11,20.80
2011,08,19,14,12,20.80
2011,08,19,14,13,20.80
2011,08,19,14,14,20.80
2011,08,19,14,15,20.80
2011,08,19,14,16,20.80
2011,08,19,14,17,20.80
2011,08,19,14,18,20.80
2011,08,19,14,19,20.90
2011,08,19,14,20,20.90
2011,08,19,14,21,20.90
2011,08,19,14,22,20.90
2011,08,19,14,23,20.90
2011,08,19,14,24,20.90
2011,08,19,14,25,21.00
2011,08,19,14,26,21.00
2011,08,19,14,27,21.00
2011,08,19,14,28,21.00
2011,08,19,14,29,20.90
2011,08,19,14,30,20.90
2011,08,19,14,31,20.90
2011,08,19,14,32,20.90
2011,08,19,14,33,20.90
2011,08,19,14,34,20.90
2011,08,19,14,35,20.80
2011,08,19,14,36,20.80
2011,08,19,14,37,20.80
2011,08,19,14,38,20.70
2011,08,19,14,39,20.70
2011,08,19,14,40,20.70
2011,08,19,14,41,20.70
2011,08,19,14,42,20.70
2011,08,19,14,43,20.70
2011,08,19,14,44,20.70
2011,08,19,14,45,20.70
2011,08,19,14,46,20.70
2011,08,19,14,47,20.70
2011,08,19,14,48,20.70
2011,08,19,14,49,20.70
2011,08,19,14,50,20.60
2011,08,19,14,51,20.60
2011,08,19,14,52,20.60
2011,08,19,14,53,20.60
2011,08,19,14,54,20.60
2011,08,19,14,55,20.60
2011,08,19,14,56,20.60
2011,08,19,14,57,20.60
2011,08,19,14,58,20.70
2011,08,19,14,59,20.70
2011,08,19,15,00,20.80
2011,08,19,15,01,20.80
2011,08,19,15,02,20.80
2011,08,19,15,03,20.80
2011,08,19,15,04,20.90
2011,08,19,15,05,20.80
2011,08,19,15,06,20.80
2011,08,19,15,07,20.80
2011,08,19,15,08,20.80
2011,08,19,15,09,20.80
2011,08,19,15,10,20.80
2011,08,19,15,11,20.80
2011,08,19,15,12,20.80
2011,08,19,15,13,20.90
2011,08,19,15,14,21.00
2011,08,19,15,15,21.10
2011,08,19,15,16,21.10
2011,08,19,15,17,21.20
2011,08,19,15,18,21.20
2011,08,19,15,19,21.20
2011,08,19,15,20,21.20
2011,08,19,15,21,21.20
2011,08,19,15,22,21.20
2011,08,19,15,23,21.20
2011,08,19,15,24,21.10
2011,08,19,15,25,21.10
2011,08,19,15,26,21.10
2011,08,19,15,27,21.10
2011,08,19,15,28,21.10
2011,08,19,15,29,21.10
2011,08,19,15,30,21.00
2011,08,19,15,31,21.00
2011,08,19,15,32,21.00
2011,08,19,15,33,21.00
2011,08,19,15,34,21.00
2011,08,19,15,35,21.10
2011,08,19,15,36,21.10
2011,08,19,15,37,21.20
2011,08,19,15,38,21.20
2011,08,19,15,39,21.20
2011,08,19,15,40,21.20
2011,08,19,15,41,21.30
2011,08,19,15,42,21.30
2011,08,19,15,43,21.30
2011,08,19,15,44,21.40
2011,08,19,15,45,21.50
2011,08,19,15,46,21.50
2011,08,19,15,47,21.60
2011,08,19,15,48,21.60
2011,08,19,15,49,21.60
2011,08,19,15,50,21.60
2011,08,19,15,51,21.70
2011,08,19,15,52,21.70
2011,08,19,15,53,21.70
2011,08,19,15,54,21.60
2011,08,19,15,55,21.60
2011,08,19,15,56,21.70
2011,08,19,15,57,21.70
2011,08,19,15,58,21.70
2011,08,19,15,59,21.70
2011,08,19,16,00,21.70
2011,08,19,16,01,21.80
2011,08,19,16,02,21.80
2011,08,19,16,03,21.90
2011,08,19,16,04,21.90
2011,08,19,16,05,21.90
2011,08,19,16,06,21.90
2011,08,19,16,07,21.90
2011,08,19,16,08,21.90
2011,08,19,16,09,21.90
2011,08,19,16,10,21.90
2011,08,19,16,11,21.90
2011,08,19,16,12,21.90
2011,08,19,16,13,21.90
2011,08,19,16,14,21.90
2011,08,19,16,15,21.90
2011,08,19,16,16,22.00
2011,08,19,16,17,22.00
2011,08,19,16,18,22.00
2011,08,19,16,19,22.10
2011,08,19,16,20,22.20
2011,08,19,16,21,22.20
2011,08,19,16,22,22.20
2011,08,19,16,23,22.20
2011,08,19,16,24,22.20
2011,08,19,16,25,22.10
2011,08,19,16,26,22.10
2011,08,19,16,27,22.10
2011,08,19,16,28,22.10
2011,08,19,16,29,22.10
2011,08,19,16,30,22.10
2011,08,19,16,31,22.10
2011,08,19,16,32,22.20
2011,08,19,16,33,22.20
2011,08,19,16,34,22.20
2011,08,19,16,35,22.30
2011,08,19,16,36,22.30
2011,08,19,16,37,22.40
2011,08,19,16,38,22.40
2011,08,19,16,39,22.50
2011,08,19,16,40,22.50
2011,08,19,16,41,22.50
2011,08,19,16,42,22.60
2011,08,19,16,43,22.60
2011,08,19,16,44,22.50
2011,08,19,16,45,22.60
2011,08,19,16,46,22.60
2011,08,19,16,47,22.60
2011,08,19,16,48,22.60
2011,08,19,16,49,22.70
2011,08,19,16,50,22.80
2011,08,19,16,51,22.80
2011,08,19,16,52,22.80
2011,08,19,16,53,22.80
2011,08,19,16,54,22.80
2011,08,19,16,55,22.80
2011,08,19,16,56,22.80
2011,08,19,16,57,22.80
2011,08,19,16,58,22.80
2011,08,19,16,59,22.80
2011,08,19,17,00,22.90
2011,08,19,17,01,22.90
2011,08,19,17,02,22.90
2011,08,19,17,03,22.90
2011,08,19,17,04,22.90
2011,08,19,17,05,22.90
2011,08,19,17,06,22.90
2011,08,19,17,07,22.80
2011,08,19,17,08,22.80
2011,08,19,17,09,22.80
2011,08,19,17,10,22.80
2011,08,19,17,11,22.80
2011,08,19,17,12,22.80
2011,08,19,17,13,22.80
2011,08,19,17,14,22.80
2011,08,19,17,15,22.80
2011,08,19,17,16,22.80
2011,08,19,17,17,22.80
2011,08,19,17,18,22.80
2011,08,19,17,19,22.70
2011,08,19,17,20,22.70
2011,08,19,17,21,22.60
2011,08,19,17,22,22.50
2011,08,19,17,23,22.50
2011,08,19,17,24,22.40
2011,08,19,17,25,22.40
2011,08,19,17,26,22.40
2011,08,19,17,27,22.30
2011,08,19,17,28,22.30
2011,08,19,17,29,22.30
2011,08,19,17,30,22.30
2011,08,19,17,31,22.20
2011,08,19,17,32,22.20
2011,08,19,17,33,22.20
2011,08,19,17,34,22.20
2011,08,19,17,35,22.20
2011,08,19,17,36,22.20
2011,08,19,17,37,22.10
2011,08,19,17,38,22.10
2011,08,19,17,39,22.10
2011,08,19,17,40,22.10
2011,08,19,17,41,22.10
2011,08,19,17,42,22.00
2011,08,19,17,43,22.00
2011,08,19,17,44,22.00
2011,08,19,17,45,21.90
2011,08,19,17,46,21.90
2011,08,19,17,47,21.90
2011,08,19,17,48,21.90
2011,08,19,17,49,21.90
2011,08,19,17,50,21.80
2011,08,19,17,51,21.80
2011,08,19,17,52,21.80
2011,08,19,17,53,21.80
2011,08,19,17,54,21.80
2011,08,19,17,55,21.80
2011,08,19,17,56,21.90
2011,08,19,17,57,21.90
2011,08,19,17,58,21.90